Temp
4 4 4 4 4 4 4 4 4 4 4 4 4 4 4 4 4 4 5 5 5 5 5 5 5 5 5 5 5 5 5 5 5 5 4 4 4 4 4 4 4 5
4 4 4 4 3 3 3 3 3 3 3 3 3 3 4 4 4 4 4 4 4 4 4 5 5 5 5 5 5 5 5 5 4 4 4 4 4 4 4 4 4 4
3 3 3 3 3 3 3 3 3 3 3 3 3 3 3 3 4 4 4 4 4 4 4 4 4 4 4 4 4 5 5 5 4 4 4 4 4 4 4 4 4 4
3 3 3 3 3 3 3 3 3 3 3 3 3 3 3 3 3 3 3 3 3 4 4 4 4 4 4 4 4 4 4 4 4 4 4 4 4 4 4 4 4 4
3 3 3 3 3 3 3 3 3 3 3 3 3 3 3 3 3 3 3 3 3 3 3 3 3 3 3 3 4 4 4 4 4 4 4 4 4 4 4 4 3 3
2 2 2 2 2 2 1 1 1 2 2 2 2 2 3 3 3 3 3 3 3 3 3 3 3 3 3 3 3 3 3 4 4 4 3 4 4 4 4 4 3 3
2 1 1 1 1 1 1 1 1 1 1 1 1 1 1 2 2 2 2 2 3 3 3 3 3 3 3 2 2 2 2 3 3 3 3 3 3 3 4 4 3 3
1 1 1 1 1 1 0 0 0 0 0 0 1 1 0 0 1 1 1 1 1 2 2 2 3 3 3 3 2 2 2 2 2 2 2 2 3 3 3 3 3 3
1 1 1 0 0 0 -0 -0 -0 -0 -1 -1 -0 -0 -0 -0 -0 -0 -0 -0 -0 0 1 1 1 2 2 2 2 2 2 2 2 1 1 0 1 1 2 2 2 2
1 1 0 0 -0 -0 -1 -1 -1 -1 -1 -1 -1 -2 -1 -1 -2 -2 -2 -2 -2 -2 -1 -1 -1 -0 0 0 1 1 1 1 2 2 1 1 0 -0 0 1 1 1
1 0 0 -0 -0 -1 -1 -1 -1 -2 -2 -2 -2 -2 -2 -3 -3 -3 -3 -3 -3 -3 -3 -3 -3 -3 -2 -2 -2 -2 -2 -1 -1 -0 0 0 0 0 -0 -1 -1 -0
1 0 0 -0 -0 -1 -1 -1 -2 -2 -2 -2 -3 -3 -3 -3 -3 -4 -4 -4 -4 -4 -4 -4 -4 -4 -4 -4 -4 -4 -4 -3 -3 -3 -2 -2 -1 -1 -1 -1 -1 -1
1 0 0 -0 -0 -1 -1 -1 -2 -2 -3 -3 -3 -3 -4 -4 -4 -4 -4 -5 -5 -5 -5 -5 -5 -5 -5 -5 -5 -5 -5 -5 -5 -4 -4 -4 -4 -3 -3 -2 -2 -2
1 0 -0 -0 -0 -0 -1 -1 -1 -2 -3 -3 -4 -4 -4 -4 -5 -5 -5 -5 -5 -5 -6 -6 -6 -6 -6 -6 -6 -6 -6 -6 -5 -5 -5 -5 -5 -4 -4 -4 -3 -3
0 -0 -0 -1 -1 -1 -1 -1 -2 -2 -3 -3 -4 -4 -5 -5 -5 -6 -6 -6 -6 -6 -6 -6 -6 -6 -6 -7 -7 -6 -6 -6 -6 -6 -6 -5 -5 -5 -5 -4 -4 -4
-0 -0 -1 -1 -1 -1 -2 -2 -2 -3 -3 -3 -3 -4 -4 -5 -5 -6 -6 -7 -7 -7 -7 -7 -7 -7 -7 -7 -7 -7 -7 -6 -6 -6 -6 -6 -6 -6 -5 -5 -5 -4
-1 -1 -1 -1 -2 -2 -3 -3 -3 -4 -4 -4 -5 -5 -5 -5 -6 -7 -7 -8 -8 -8 -8 -8 -8 -8 -8 -8 -8 -7 -7 -7 -7 -7 -7 -7 -7 -6 -6 -6 -6 -5
-1 -1 -2 -2 -3 -3 -4 -4 -5 -5 -6 -6 -6 -7 -7 -7 -8 -8 -8 -9 -9 -9 -9 -9 -9 -9 -9 -9 -9 -9 -8 -8 -8 -8 -8 -8 -8 -7 -7 -7 -7 -6
-2 -3 -3 -4 -4 -5 -5 -6 -6 -7 -7 -8 -8 -9 -9 -9 -9 -10 -10 -10 -11 -11 -11 -11 -11 -11 -11 -11 -10 -10 -10 -9 -9 -9 -9 -9 -9 -9 -8 -8 -8 -7
-4 -4 -5 -5 -6 -6 -7 -7 -8 -8 -9 -10 -10 -10 -10 -11 -11 -12 -12 -13 -13 -13 -13 -13 -13 -13 -13 -12 -12 -12 -11 -11 -11 -10 -10 -10 -10 -10 -9 -9 -9 -9
-6 -6 -7 -7 -7 -8 -8 -9 -9 -10 -10 -11 -11 -11 -12 -13 -13 -14 -14 -14 -15 -15 -15 -15 -15 -15 -14 -14 -13 -13 -12 -12 -12 -12 -12 -12 -11 -11 -11 -10 -10 -10
-8 -8 -8 -9 -9 -10 -10 -11 -11 -12 -12 -12 -12 -13 -14 -15 -15 -15 -16 -16 -16 -16 -16 -16 -16 -16 -16 -15 -15 -14 -14 -13 -14 -14 -14 -13 -13 -13 -12 -12 -11 -11
-9 -9 -10 -10 -11 -11 -12 -13 -13 -13 -13 -14 -14 -15 -16 -16 -16 -17 -17 -17 -17 -17 -17 -17 -17 -17 -17 -16 -15 -15 -14 -14 -15 -14 -14 -14 -14 -14 -13 -13 -12 -12
-10 -11 -11 -11 -12 -13 -14 -14 -14 -14 -14 -15 -16 -17 -17 -17 -17 -18 -18 -18 -18 -18 -18 -18 -18 -18 -17 -17 -16 -16 -15 -15 -15 -14 -14 -14 -14 -14 -14 -13 -13 -13
-11 -11 -12 -13 -14 -15 -15 -15 -15 -15 -15 -16 -17 -18 -18 -18 -18 -18 -18 -19 -18 -18 -18 -18 -18 -18 -18 -17 -17 -16 -15 -15 -15 -14 -14 -14 -14 -14 -14 -14 -13 -13
-12 -13 -14 -15 -15 -15 -15 -15 -16 -16 -16 -17 -18 -18 -19 -19 -19 -19 -19 -19 -19 -19 -19 -19 -19 -19 -18 -18 -17 -16 -15 -15 -15 -14 -14 -14 -14 -14 -14 -14 -14 -13
Height
838 839 840 840 841 841 840 840 839 838 836 835 834 834 833 832 831 830 829 828 827 826 825 824 823 822 821 820 819 818 817 816 816 816 815 815 814 814 813 813 813 812
839 841 842 842 842 842 842 841 841 840 838 837 836 835 834 833 832 831 830 829 828 827 826 825 824 823 821 820 818 817 816 815 814 814 813 813 813 812 812 811 811 810
841 842 843 843 843 843 843 843 841 840 839 838 837 835 834 832 832 831 830 829 828 827 826 825 824 823 822 820 819 817 816 814 813 812 812 811 811 810 809 809 808 808
842 843 844 844 844 844 843 842 841 840 839 838 837 835 833 832 831 830 830 829 828 827 826 825 824 822 821 820 819 818 816 815 813 812 810 809 809 808 807 807 806 805
844 844 844 845 845 844 844 842 841 840 839 838 837 835 833 831 830 829 828 827 827 826 825 824 823 822 820 819 818 817 815 814 813 811 810 808 807 806 806 805 803 803
845 845 845 845 845 844 844 842 841 840 839 838 837 835 834 832 830 829 827 826 825 824 823 822 821 820 819 818 816 815 814 813 811 810 809 807 806 805 804 803 801 800
846 846 846 846 845 845 844 843 842 840 839 838 837 836 834 832 831 830 828 827 826 824 823 821 819 818 816 815 814 813 813 811 810 809 807 806 804 803 802 802 800 798
846 846 846 845 845 844 843 842 841 840 839 838 837 835 834 833 831 830 829 827 826 824 822 820 819 817 815 813 812 810 809 808 807 806 805 803 802 800 799 799 797 796
845 845 845 844 844 843 842 841 840 839 838 837 835 834 833 831 830 829 827 826 824 823 821 819 818 816 814 813 811 809 807 805 804 802 801 800 798 797 796 795 794 792
844 844 843 843 842 841 840 839 838 837 836 835 833 832 830 829 828 826 825 823 821 820 818 817 815 814 812 811 809 808 806 804 802 800 798 796 794 793 792 791 790 788
842 842 841 840 840 839 838 837 836 835 833 832 831 829 828 826 824 823 821 820 818 817 815 813 812 811 809 807 806 805 804 802 800 798 796 794 791 790 788 787 786 784
841 840 839 838 838 837 836 835 833 832 831 829 828 826 824 823 821 820 818 817 815 813 812 810 808 807 805 804 803 802 801 799 798 796 794 792 790 788 786 785 783 781
839 839 838 837 836 835 834 832 831 830 828 827 825 823 821 820 818 816 815 813 812 810 808 807 805 803 802 801 800 799 798 797 795 793 791 789 787 785 784 782 780 778
838 837 836 835 834 833 831 830 828 827 825 824 822 821 819 817 815 813 811 810 808 807 805 804 802 800 798 798 798 797 796 794 792 790 787 785 783 781 779 778 775 774
835 835 834 833 832 830 829 827 825 824 822 821 819 817 816 814 812 811 808 806 805 803 802 801 799 797 796 796 796 794 792 791 788 787 784 782 779 776 775 773 770 768
834 833 832 831 829 827 826 824 823 822 819 818 816 814 812 810 808 807 805 804 802 799 798 797 795 793 793 793 793 792 789 787 784 782 780 778 775 772 769 767 765 764
832 831 830 829 827 826 824 822 821 819 818 816 814 811 810 807 805 803 801 801 799 797 795 793 791 790 790 790 790 788 787 784 780 777 775 772 770 767 763 761 759 757
830 829 828 827 825 824 822 821 819 817 816 814 811 809 807 804 803 801 798 797 797 795 792 789 787 786 787 787 785 783 783 780 777 773 769 766 764 761 758 755 753 751
828 827 826 824 823 822 820 819 817 815 813 811 808 806 804 802 800 798 796 795 794 792 789 786 784 784 784 784 781 779 778 776 773 768 764 761 758 756 753 751 748 746
826 825 824 823 821 820 818 816 815 812 811 809 806 803 801 798 796 794 792 792 791 789 786 782 780 781 781 779 777 775 774 771 768 763 759 755 752 750 748 746 744 742
824 823 822 820 819 817 815 814 812 810 808 806 803 801 798 796 793 791 789 788 788 787 783 778 777 779 778 775 773 771 769 766 763 759 755 750 747 744 743 740 738 736
822 821 819 818 816 814 812 810 809 806 805 803 800 797 795 793 791 789 787 786 784 783 780 774 772 775 775 771 769 768 765 762 759 755 751 746 742 740 738 736 734 732
820 818 816 815 813 811 809 807 805 803 802 800 797 793 791 790 788 786 785 784 780 779 777 772 768 770 771 768 765 764 761 758 755 750 746 742 738 736 734 732 730 728
817 815 814 812 810 808 806 804 802 800 798 797 795 791 788 786 785 782 781 781 778 775 774 770 765 765 767 764 761 760 757 754 751 746 742 739 735 732 731 729 726 725
814 812 811 809 807 805 803 801 799 797 795 793 792 789 785 783 782 779 776 776 775 771 770 768 763 761 762 760 757 755 753 750 747 743 738 735 732 729 726 725 723 721
811 809 807 806 804 801 800 798 796 794 792 790 788 786 783 780 779 777 773 771 770 768 765 764 761 757 757 756 753 751 749 746 743 739 735 731 728 725 722 720 719 717
Wind_Speed
27 26 25 25 24 24 23 23 23 24 24 24 24 23 23 23 23 23 23 23 22 22 22 21 20 20 19 17 17 16 16 16 17 17 18 19 19 20 21 22 22 23
24 23 22 22 22 22 22 22 22 22 23 23 22 22 21 22 22 22 22 22 22 22 21 21 21 21 21 21 20 19 18 18 17 17 17 18 19 20 21 22 23 24
21 21 21 21 21 21 21 21 22 23 23 23 23 23 23 23 23 23 23 23 23 23 22 22 22 22 22 22 21 21 21 20 20 19 18 18 19 20 21 22 23 23
19 19 19 19 19 20 21 21 22 23 23 24 24 24 25 25 25 24 24 24 24 24 24 24 24 24 24 24 23 22 22 21 21 21 21 20 20 20 21 21 23 23
17 17 18 19 19 19 20 21 21 22 23 23 24 24 25 25 26 26 26 26 26 26 26 25 25 25 25 26 26 26 25 24 23 22 22 23 22 22 22 22 23 24
14 15 15 16 17 17 19 20 21 22 23 23 23 24 24 24 24 25 26 27 27 28 28 28 28 27 27 26 26 26 26 27 27 26 25 25 24 24 24 24 25 26
10 12 13 14 15 16 17 19 19 20 22 22 23 23 23 24 24 24 25 26 26 27 27 28 29 29 30 29 29 28 27 27 28 28 29 29 27 27 26 25 26 27
9 11 12 13 15 16 17 18 19 20 20 21 22 22 23 24 25 25 26 26 26 27 27 27 28 28 29 31 31 32 32 31 30 29 30 30 30 31 30 28 27 28
10 11 13 14 15 17 18 19 19 20 20 21 22 23 24 25 26 27 27 28 28 28 28 28 29 29 29 30 30 32 33 34 35 34 33 32 32 32 32 31 31 31
11 12 14 16 17 18 20 20 21 22 22 22 23 24 25 26 27 28 28 29 29 30 30 30 30 31 31 31 31 32 33 34 35 36 36 36 36 35 34 33 32 33
12 14 16 18 19 21 22 23 24 24 24 25 25 26 27 28 29 30 30 30 30 30 31 31 31 32 32 33 33 33 34 35 35 36 37 38 39 39 38 36 34 35
14 16 18 20 22 24 25 25 26 26 27 27 28 28 30 30 31 32 31 32 32 32 31 32 32 32 32 32 33 33 33 34 34 35 36 37 38 39 40 40 38 38
14 16 18 21 23 26 27 28 27 28 28 29 29 30 32 33 33 33 33 33 33 33 33 32 32 33 33 32 32 31 31 32 33 34 35 36 37 38 39 40 40 41
15 17 19 22 25 28 29 30 29 30 30 31 31 31 32 33 34 35 36 35 34 34 33 33 34 34 34 32 31 30 30 31 33 34 35 36 36 38 38 39 40 41
16 19 21 25 27 29 30 31 31 32 33 34 35 35 35 35 36 36 35 36 36 35 35 35 34 35 35 31 30 30 31 31 32 32 33 34 35 37 38 39 40 40
18 21 24 27 29 30 31 31 32 34 36 37 38 39 39 39 39 38 36 36 36 37 37 36 36 37 35 30 28 29 30 31 32 33 33 34 35 37 38 39 40 40
20 23 26 28 29 30 31 32 33 35 36 37 39 39 40 39 39 39 39 37 36 37 38 39 39 39 34 30 29 30 30 31 33 35 35 36 36 37 39 40 40 40
22 25 26 27 28 29 30 32 34 35 36 37 37 37 38 39 39 39 39 38 36 37 38 39 40 39 33 31 32 32 31 31 33 35 36 36 36 37 38 40 41 41
23 24 25 26 27 29 31 32 33 35 35 35 36 36 36 37 38 38 38 37 35 35 37 39 39 37 32 31 33 33 33 33 34 36 38 39 40 40 40 41 41 40
22 23 24 26 27 29 30 31 32 33 34 34 35 36 36 37 38 37 37 35 33 34 36 39 39 35 32 33 34 34 34 34 34 36 38 39 40 41 41 41 41 41
21 22 24 26 27 28 29 30 31 32 33 33 34 35 35 36 36 36 36 35 34 34 36 40 40 34 32 33 34 33 33 33 32 33 34 35 37 38 38 39 41 42
20 22 24 25 26 27 28 29 30 30 31 32 34 35 34 34 35 35 35 36 36 35 36 41 41 34 31 32 32 31 32 31 31 31 32 34 35 36 36 36 37 38
20 22 23 24 25 27 28 28 29 30 30 30 32 34 34 34 35 36 35 34 36 36 36 39 40 34 30 31 31 31 31 31 30 31 31 32 33 33 33 33 33 33
20 21 22 24 24 25 27 28 28 30 30 29 30 33 35 35 35 36 35 33 34 36 35 36 39 35 30 31 32 30 30 31 30 30 31 31 32 32 31 31 31 31
19 20 21 22 24 25 26 27 28 29 30 30 30 32 34 35 34 35 36 34 34 36 34 34 37 37 32 31 32 30 29 31 31 31 31 32 32 33 32 32 32 33
18 19 20 21 23 25 25 26 27 29 30 31 32 32 33 34 33 33 36 36 34 35 35 34 36 37 33 30 31 30 29 31 31 32 33 33 33 34 35 34 34 34
Wind_Direction
69 66 64 62 58 55 52 49 47 45 44 41 39 36 33 30 27 26 26 25 25 24 23 21 17 13 8 1 352 342 332 323 317 315 313 311 313 314 312 310 307 301
63 61 58 55 51 47 45 42 39 38 36 34 32 30 27 24 22 19 17 16 16 15 14 13 11 10 8 5 2 358 352 344 334 327 318 311 309 309 309 309 308 307
56 52 49 45 41 38 34 33 31 29 27 25 23 21 19 17 15 13 11 8 7 6 5 4 2 1 359 358 357 356 354 352 348 340 328 320 315 310 308 307 305 304
51 46 42 38 34 30 26 25 23 21 19 17 15 13 12 11 8 6 5 3 1 360 358 357 355 354 352 350 349 347 347 346 345 342 335 331 326 318 313 309 304 302
47 42 38 32 28 24 20 18 16 14 12 10 8 6 4 3 1 359 358 356 355 353 352 351 350 349 348 346 344 342 340 338 338 336 333 331 329 326 321 314 308 304
48 40 36 29 25 20 15 13 10 7 5 4 2 1 359 359 357 354 352 349 348 346 345 344 344 343 343 341 339 337 335 334 333 331 328 325 324 323 322 319 313 309
49 37 34 26 20 16 11 8 5 1 360 358 357 356 354 353 351 349 347 343 341 339 338 337 336 336 336 335 333 331 330 328 327 326 324 321 320 317 317 316 313 311
45 28 24 17 12 9 4 3 0 357 354 351 351 350 348 346 344 342 340 337 335 332 330 329 327 327 327 327 325 324 323 322 322 321 318 316 315 313 312 312 309 306
30 17 11 6 3 359 356 355 352 350 349 345 344 342 340 339 337 335 333 332 329 327 325 322 320 319 318 317 316 315 315 315 315 315 314 311 309 308 307 307 305 302
14 7 2 359 356 353 350 348 345 344 342 340 339 337 335 334 332 330 329 327 325 324 322 319 317 316 314 311 309 309 308 308 307 308 308 307 306 305 304 302 300 298
358 355 354 353 351 348 345 341 340 338 338 337 335 333 331 330 329 328 327 324 322 320 318 316 315 314 311 309 308 307 306 305 305 304 304 303 303 302 301 300 298 295
346 345 345 346 345 343 340 337 336 335 334 334 333 331 329 328 327 326 325 322 320 317 315 313 312 310 307 306 305 305 305 304 303 303 302 301 300 299 298 298 296 294
335 335 336 337 337 336 334 332 332 331 331 331 330 328 326 326 325 323 321 320 317 315 313 311 310 307 304 303 303 303 303 302 302 301 299 298 296 295 294 293 293 292
327 328 329 331 331 329 328 327 327 327 327 327 326 325 324 322 321 320 318 317 315 313 311 310 308 306 304 304 304 304 302 300 299 298 297 295 294 293 292 291 289 289
322 323 325 326 326 325 325 324 323 323 322 322 322 321 321 319 318 317 316 315 314 312 310 309 307 305 304 305 306 305 303 301 298 296 294 292 291 290 289 288 287 286
317 318 320 322 322 322 322 321 320 320 319 319 318 317 317 317 316 315 314 313 312 311 309 308 305 303 304 306 306 304 303 301 299 296 293 291 289 288 286 285 285 284
315 316 318 319 318 317 317 317 317 317 316 315 315 314 314 314 313 313 311 310 310 309 307 306 304 303 306 308 307 305 304 302 299 296 294 291 288 286 285 285 284 283
314 314 313 314 314 315 315 315 314 313 314 314 313 313 313 311 310 309 308 307 308 307 305 304 302 303 308 310 308 307 306 303 300 297 294 291 288 286 284 284 284 284
312 311 310 310 312 313 312 312 312 312 313 313 312 312 311 309 307 306 304 305 306 306 304 302 301 304 309 310 307 306 306 304 300 296 293 290 288 286 284 283 283 284
308 308 309 309 311 311 311 311 311 311 311 311 311 310 308 306 305 304 304 305 306 305 304 302 301 305 309 308 306 305 304 302 299 294 291 289 287 286 285 284 283 283
306 308 309 310 311 311 310 310 310 311 311 312 310 308 306 304 304 303 304 306 306 306 304 302 301 306 309 307 306 306 305 302 298 295 292 290 288 287 286 285 284 283
308 309 311 311 312 311 310 311 312 312 312 312 310 307 305 304 303 303 304 305 305 305 303 301 302 306 308 306 305 306 305 303 299 295 292 289 287 287 287 286 285 283
310 311 312 312 311 311 312 313 314 313 313 312 309 306 305 304 303 303 303 303 303 303 302 301 303 306 307 305 304 304 303 300 297 294 291 289 289 288 288 287 285 284
313 312 311 311 311 313 314 315 314 313 312 311 308 305 303 302 302 302 301 301 301 301 302 301 302 304 305 303 302 302 300 298 295 292 290 290 290 290 290 289 288 288
314 313 312 312 314 315 315 315 314 313 312 310 306 303 300 300 300 300 300 301 301 301 302 301 301 302 303 302 300 300 298 296 294 291 289 290 290 290 290 289 289 290
316 315 314 315 316 317 317 315 314 313 312 309 305 301 299 298 299 299 299 301 302 303 304 302 301 301 302 301 299 299 298 296 294 291 289 289 289 288 288 287 288 288